Scottsdale, AZ

6:35 AM MST on February 13, 2016 (GMT -0700)
Scottsdale

Weather History for KSDL - October, 2012

Change the Weather History Date:

Sunday, October 28, 2012

  Actual Average Record
Temperature  
Mean Temperature 71 °F -  
Max Temperature 87 °F 76 °F 93 °F (2007)
Min Temperature 55 °F 55 °F 50 °F (2002)
Cooling Degree Days 6    
Growing Degree Days 21 (Base 50)    
Moisture  
Dew Point 29 °F    
Average Humidity 24    
Maximum Humidity 45    
Minimum Humidity 10    
Precipitation  
Precipitation 0.00 in - - ()
Sea Level Pressure  
Sea Level Pressure 29.92 in    
Wind  
Wind Speed 1 mph (NW)    
Max Wind Speed 6 mph    
Max Gust Speed -    
Visibility 10 miles    
Events      
Averages and records for this station are not official NWS values.
T = Trace of Precipitation, MM = Missing Value Source: NWS Daily Summary

Daily Weather History Graph

Daily Weather History Graph

Search for Another Location

Airport or City:

Trip Planner

Search our weather history database for the weather conditions in past years. The results will help you decide how hot, cold, wet, or windy it might be!

Date:

Astronomy

Oct. 28, 2012 Rise Set
Actual Time 6:43 AM MST 5:38 PM MST
Civil Twilight 6:17 AM MST 6:04 PM MST
Nautical Twilight 5:48 AM MST 6:33 PM MST
Astronomical Twilight 5:19 AM MST 7:02 PM MST
Moon 4:58 PM MST (10/28) 5:41 AM MST (10/28)
Length of Visible Light 11h 46m
Length of Day
10h 55m
Waxing Gibbous, 99% of the Moon is Illuminated
Oct 28
Waxing Gibbous
Oct 29
Full
Nov 6
Last Quarter
Nov 13
New
Nov 20
First Quarter

Hourly Weather History & Observations

Time (MST) Temp. Dew Point Humidity Pressure Visibility Wind Dir Wind Speed Gust Speed Precip Events Conditions
12:53 AM 62.1 °F 33.1 °F 34% 29.91 in 10.0 mi Calm Calm - N/A   Clear
1:53 AM 61.0 °F 33.1 °F 35% 29.90 in 10.0 mi Calm Calm - N/A   Clear
2:53 AM 57.9 °F 34.0 °F 41% 29.91 in 10.0 mi Calm Calm - N/A   Clear
3:53 AM 59.0 °F 35.1 °F 41% 29.89 in 10.0 mi Calm Calm - N/A   Clear
4:53 AM 57.0 °F 36.0 °F 45% 29.91 in 10.0 mi Calm Calm - N/A   Clear
5:53 AM 55.9 °F 32.0 °F 40% 29.92 in 10.0 mi West 3.5 mph - N/A   Clear
6:53 AM 57.0 °F 30.9 °F 37% 29.94 in 10.0 mi Calm Calm - N/A   Clear
7:53 AM 63.0 °F 33.1 °F 33% 29.96 in 10.0 mi Calm Calm - N/A   Clear
8:53 AM 69.1 °F 28.9 °F 22% 29.97 in 10.0 mi NW 3.5 mph - N/A   Clear
9:53 AM 75.0 °F 26.1 °F 16% 29.98 in 10.0 mi Variable 3.5 mph - N/A   Clear
10:53 AM 78.1 °F 23.0 °F 13% 29.96 in 10.0 mi Calm Calm - N/A   Clear
11:53 AM 82.0 °F 24.1 °F 12% 29.94 in 10.0 mi Variable 3.5 mph - N/A   Clear
12:53 PM 84.9 °F 24.1 °F 11% 29.92 in 10.0 mi Variable 3.5 mph - N/A   Clear
1:53 PM 86.0 °F 24.1 °F 10% 29.89 in 10.0 mi Calm Calm - N/A   Clear
2:53 PM 87.1 °F 25.0 °F 10% 29.88 in 10.0 mi SSW 5.8 mph - N/A   Clear
3:53 PM 87.1 °F 24.1 °F 10% 29.88 in 10.0 mi Calm Calm - N/A   Clear
4:53 PM 86.0 °F 24.1 °F 10% 29.88 in 10.0 mi WSW 3.5 mph - N/A   Clear
5:53 PM 82.0 °F 28.0 °F 14% 29.90 in 10.0 mi Calm Calm - N/A   Clear
6:53 PM 77.0 °F 30.0 °F 18% 29.91 in 10.0 mi Calm Calm - N/A   Clear
7:53 PM 75.0 °F 30.0 °F 19% 29.92 in 10.0 mi Calm Calm - N/A   Clear
8:53 PM 72.0 °F 30.9 °F 22% 29.94 in 10.0 mi North 4.6 mph - N/A   Clear
9:53 PM 70.0 °F 30.0 °F 23% 29.95 in 10.0 mi North 4.6 mph - N/A   Clear
10:53 PM 66.0 °F 30.9 °F 27% 29.96 in 10.0 mi Calm Calm - N/A   Clear
11:53 PM 66.0 °F 30.0 °F 26% 29.96 in 10.0 mi NNE 3.5 mph - N/A   Clear